Regional Weather Roundup
Issued by NWS

Home | Current Version | Previous Version | Text Only | Print | Product List | Glossary Off
Versions: 1 2 3 4 5 6 7 8 9 10 11 12 13 14 15 16 17 18 19 20 21 22 23 24 25 26 27 28 29 30 31 32 33 34 35 36 37 38 39 40 41 42 43 44 45 46 47 48 49 50

000
ASUS43 KMPX 012001
RWRMN
WEATHER ROUNDUP FOR MINNESOTA
NATIONAL WEATHER SERVICE TWIN CITIES/CHANHASSEN MN
300 PM CDT MON SEP 01 2014


NOTE: "FAIR" INDICATES FEW OR NO CLOUDS BELOW 12,000 FEET WITH NO
SIGNIFICANT WEATHER AND/OR OBSTRUCTIONS TO VISIBILITY. N/A MEANS
CURRENT SKY AND/OR WEATHER CONDITIONS ARE NOT AVAILABLE.

MNZ060>063-068>070-012100-
   Twin Cities Metro

CITY           SKY/WX    TMP DP  RH WIND       PRES   REMARKS
TWIN CITIES    MOSUNNY   76  55  48 W16       29.74R
ST PAUL        MOSUNNY   75  55  49 NW14      29.74R
CRYSTAL        MOSUNNY   76  55  48 W9        29.73S
LAKEVILLE      SUNNY     73  57  56 W12       29.76R
EDEN PRAIRIE   MOSUNNY   77  56  48 W16G22    29.74S
SOUTH ST PAUL  MOSUNNY   77  55  46 W13G18    29.74R
LAKE ELMO      FAIR      75  55  50 NW13G20   29.75R
$$
MNZ001>005-007-008-013>017-022>024-027-028-012100-
   Northwest Minnesota

CITY           SKY/WX    TMP DP  RH WIND       PRES   REMARKS
BEMIDJI        MOSUNNY   71  49  45 W14G21    29.72F
HALLOCK        PTSUNNY   70  55  60 NW13      29.68R
ROSEAU         MOSUNNY   73  55  53 W8        29.67F
WARROAD        PTSUNNY   72  55  56 N6        29.67F
THIEF RVR FALL MOSUNNY   72  52  49 W7        29.70F
CROOKSTON      RAIN      66  57  72 W8        29.72R
FOSSTON        MOSUNNY   73  52  46 W8        29.73F
DETROIT LAKES  MOSUNNY   72  54  53 W8        29.77S
MOORHEAD       MOSUNNY   75  57  53 W13       29.73F
PARK RAPIDS    SUNNY     73  49  42 W14G21    29.74S
MAHNOMEN       FAIR      69  55  62 W6        29.73F
$$
MNZ006-009>011-018-025>026-012100-
   North Central Minnesota

CITY           SKY/WX    TMP DP  RH WIND       PRES   REMARKS
BAUDETTE       SUNNY     70  53  54 NW8       29.67S
FLAG ISLAND    SUNNY     70  52  52 NW6       29.64F
INTL FALLS     MOSUNNY   67  54  63 NW12      29.65F
WASKISH        MOSUNNY   72  55  56 W9        29.69S
BIG FORK       MOSUNNY   70  52  52 W8        29.69S
LONGVILLE      SUNNY     70  52  52 W10G16    29.72S
GRAND RAPIDS   SUNNY     68  52  56 NW13G22   29.71S
CRANE LAKE     CLOUDY    64  57  77 NW6       29.66S
ORR            PTSUNNY   66  57  72 W7        29.64S
COOK           MOSUNNY   70  54  56 W13       29.66F
WALKER         FAIR      70  50  49 NW10G16   29.73R
$$
MNZ012-019>021-037-012100-
   Northeast Minnesota

CITY           SKY/WX    TMP DP  RH WIND       PRES   REMARKS
DULUTH         PTSUNNY   71  54  54 W17       29.68R
ELY            LGT RAIN  61  57  88 W9G22     29.66R
HIBBING        MOSUNNY   71  50  47 W10       29.68R
EVELETH        MOSUNNY   68  52  56 W14G20    29.68R
DULUTH HARBOR  MOSUNNY   73  59  60 W12       29.66S
TWO HARBORS    PTSUNNY   70  57  64 W12G18    29.64R
SILVER BAY     MOSUNNY   66  61  82 NW10G21   29.63R
GRAND MARAIS     N/A     71  59  65 MISG      29.57S
G MARAIS ARPRT PTSUNNY   64  54  68 W10G16    29.62S
$$
MNZ029>031-032-039>041-046>048-054>057-064-012100-
   West Central Minnesota

CITY           SKY/WX    TMP DP  RH WIND       PRES   REMARKS
FERGUS FALLS   PTSUNNY   72  55  56 W8        29.75F
WHEATON        SUNNY     73  55  53 SW9       29.79S
MORRIS         SUNNY     75  55  50 W8        29.78F
ALEXANDRIA     MOSUNNY   73  56  54 NW12      29.80R
ELBOW LAKE     FAIR      69  57  65 W5        29.77F
WADENA         SUNNY     72  54  53 NW10      29.76S
GLENWOOD       MOSUNNY   73  55  53 W12       29.80S
APPLETON       SUNNY     77  54  44 CALM      29.78F
BENSON         PTSUNNY   75  55  50 NW9G17    29.79F
ORTONVILLE     SUNNY     73  54  49 SW3       29.78F
MADISON        SUNNY     79  59  50 W6        29.79F
WILLMAR        FAIR      75  55  50 W14       29.80F
$$
MNZ033>034-036-042>043-049>051-058-059-012100-
   Central Minnesota

CITY           SKY/WX    TMP DP  RH WIND       PRES   REMARKS
ST CLOUD       PTSUNNY   78  55  44 W16       29.75S
SAUK CENTRE    FAIR      73  54  49 W9G17     29.78S
PAYNESVILLE    MOSUNNY   72  54  53 W9G20     29.79S
AITKIN         MOSUNNY   75  54  46 SW7       29.71S
PINE RIVER     MOSUNNY   72  52  49 W8        29.77S
BRAINERD       SUNNY     72  50  45 NW10      29.74R
STAPLES        SUNNY     72  50  46 W13       29.76R
LONG PRAIRIE   PTSUNNY   72  52  49 W13       29.78S
LITTLE FALLS   MOSUNNY   72  50  46 W10G17    29.76S
LITCHFIELD     SUNNY     75  55  50 W12G17    29.79R
BUFFALO        MOSUNNY   74  53  47 W12       29.77S
MAPLE LAKE     MOSUNNY   74  57  55 W9        29.77S
$$
MNZ037-044-045-052-053-012100-
   East Central Minnesota

CITY           SKY/WX    TMP DP  RH WIND       PRES   REMARKS
PRINCETON      MOSUNNY   75  54  46 W14       29.74S
MORA           SUNNY     70  52  52 NW13      29.74S
CAMBRIDGE      MOSUNNY   75  57  53 W10       29.72S
RUSH CITY      MOSUNNY   74  55  51 W9G17     29.72S
MOOSE LAKE     MOSUNNY   70  52  52 W8G16     29.69S
HINCKLEY       CLOUDY    72  54  53 W12G22    29.73R
CLOQUET        MOSUNNY   72  52  49 W13       29.69R
MCGREGOR       SUNNY     70  50  49 NW15      29.72S
$$
MNZ071>073-080-081-089-090-097-098-012100-
   Southwest Minnesota

CITY           SKY/WX    TMP DP  RH WIND       PRES   REMARKS
MONTEVIDEO     SUNNY     77  57  50 N6        29.81S
GRANITE FALLS  SUNNY     75  58  54 W10       29.82S
CANBY          PTSUNNY   75  54  47 NW5       29.81F
MARSHALL       SUNNY     75  52  43 NW8       29.80S
REDWOOD FALLS  SUNNY     77  56  48 NW15G21   29.80R
OLIVIA         MOSUNNY   77  55  47 NW12      29.79S
PIPESTONE      MOSUNNY   73  55  53 NW10G17   29.84S
WINDOM         PTSUNNY   70  57  64 W24G30    29.83R
WORTHINGTON    MOSUNNY   75  57  53 W13       29.85S
JACKSON        MOSUNNY   72  55  56 N6        29.83S
TRACY          MOSUNNY   76  57  52 CALM      29.82S
SLAYTON        MOSUNNY   74  57  55 CALM      29.84F
$$
MNZ065>067-074>077-082>085-091>093-012100-
   South Central Minnesota

CITY           SKY/WX    TMP DP  RH WIND       PRES   REMARKS
MANKATO        MOSUNNY   73  55  53 W14G20    29.79R
NEW ULM        SUNNY     73  57  56 W12G20    29.79S
ST JAMES       SUNNY     79  57  47 W6        29.81S
FAIRMONT       SUNNY     75  55  50 NW14      29.81F
GLENCOE        PTSUNNY   76  56  50 W10       29.77S
FARIBAULT      MOSUNNY   81  54  39 W13       29.78R
OWATONNA       SUNNY     75  55  50 W12       29.79R
WASECA         SUNNY     73  54  49 W10G20    29.81R
ALBERT LEA     MOSUNNY   75  57  53 W13G18    29.80R
$$
MNZ078>079-086>088-094>096-012100-
   Southeast Minnesota

CITY           SKY/WX    TMP DP  RH WIND       PRES   REMARKS
ROCHESTER      MOSUNNY   76  61  59 W8        29.78R
RED WING       MOSUNNY   75  57  53 NW12      29.72S
STANTON        MOSUNNY   76  56  49 W14G20    29.75R
DODGE CENTER   MOSUNNY   75  57  53 W18       29.78R
WINONA         MOSUNNY   73  61  64 E5        29.72S
AUSTIN         MOSUNNY   75  59  57 W14       29.79R
PRESTON        MOSUNNY   74  64  71 NW8       29.78R
$$
ABBREVIATIONS USED IN REMARKS
   TC - TEMPERATURES IN CELSIUS
  WCI - WIND CHILL INDEX
   HX - HEAT INDEX
  VSB - VISIBILITY
$$


USA.gov is the U.S. government's official web portal to all federal, state and local government web resources and services.